Wind_Speed
10 9 8 7 6 5 3 2 3 5 5 4 3 3 4 4 4 3 2 1 1 1 2 2 2 2 2 3 3 3 3 3 5 4 5 5 4 4 5 7 9 9 11
13 11 10 8 6 6 4 3 3 4 4 6 5 4 4 5 5 5 4 3 3 2 2 1 1 1 1 1 1 2 3 2 2 3 3 3 3 3 3 3 5 6 7
15 14 13 11 10 8 6 5 4 4 4 5 6 6 4 4 6 6 6 5 4 4 3 2 2 2 1 1 1 1 2 2 2 1 1 2 2 2 3 3 3 4 4
16 15 15 14 14 12 10 9 8 6 5 4 5 6 5 4 5 6 6 7 6 6 5 4 3 3 2 2 2 2 3 3 3 3 1 1 0 1 2 3 4 3 4
19 18 16 15 14 14 13 12 12 10 9 7 7 7 6 5 5 5 6 7 7 7 7 6 6 5 4 4 4 4 4 5 5 4 3 2 2 2 3 3 4 4 4
20 20 19 19 18 17 16 15 15 14 13 11 10 10 10 7 6 5 6 6 8 8 8 8 8 7 7 6 6 6 6 6 6 5 5 4 4 4 5 5 4 3 5
21 22 23 23 21 20 19 20 19 17 17 15 13 14 13 12 10 7 7 7 7 8 10 10 9 9 9 9 8 7 7 7 7 7 7 6 6 5 6 6 6 5 5
19 19 19 19 20 21 21 19 18 14 18 17 16 15 16 15 13 12 12 9 7 8 10 11 11 11 11 11 10 10 10 10 9 9 9 8 8 8 6 8 7 7 7
21 21 22 20 19 20 22 23 21 22 22 22 19 23 24 19 17 14 13 12 10 10 10 11 12 13 13 13 13 13 13 12 11 11 11 11 10 10 9 9 9 8 9
23 23 24 24 24 23 25 23 28 25 25 24 23 26 26 26 27 23 21 19 17 15 12 13 13 14 15 16 16 16 16 15 14 14 13 13 12 12 11 10 10 10 10
26 26 27 26 27 26 27 28 29 26 26 25 25 28 28 28 27 26 25 23 20 18 18 17 17 15 15 16 17 19 18 18 17 17 16 16 15 14 13 13 13 12 11
27 27 27 29 30 30 29 29 27 30 28 29 25 28 28 28 27 27 26 30 30 27 24 21 20 19 18 15 17 19 20 20 20 20 19 19 18 17 16 15 15 14 13
29 27 29 30 31 32 30 30 32 31 32 30 32 30 29 29 28 27 31 33 33 31 31 29 24 20 20 19 16 18 21 22 22 22 22 22 22 21 19 18 18 17 16
33 32 33 34 34 34 33 33 33 33 35 34 32 36 31 29 29 29 32 27 30 31 36 31 29 30 28 25 24 22 21 22 23 24 24 25 24 23 22 21 20 19 17
39 39 39 39 38 38 37 36 34 33 34 34 36 30 34 32 30 30 30 31 30 33 30 28 30 30 29 26 24 23 23 23 23 25 27 26 26 25 24 24 22 22 19
42 42 42 41 41 40 39 38 39 36 34 34 34 35 33 32 31 30 30 30 30 31 31 25 26 26 27 26 27 26 24 25 24 25 28 29 28 27 26 26 25 24 22
44 45 45 44 45 43 40 39 38 36 35 34 33 33 33 31 30 29 30 29 29 28 28 22 22 21 22 22 25 26 27 26 27 27 30 31 30 29 29 28 26 25 24
48 47 46 47 47 44 41 40 38 37 35 34 34 34 32 31 31 29 29 29 29 28 29 26 25 26 25 22 22 21 23 24 25 27 27 30 31 31 29 29 28 26 25
45 44 42 45 46 44 42 40 39 38 36 35 34 34 31 32 31 31 30 31 32 32 33 34 31 30 31 31 30 23 22 24 25 25 25 26 28 31 30 28 27 27 25
40 39 39 38 39 44 43 40 39 38 37 36 35 35 33 33 33 33 34 35 36 39 40 39 39 37 36 37 35 29 25 25 27 29 26 24 25 28 30 28 26 27 26
36 37 35 37 39 37 41 40 39 38 38 37 37 36 35 34 34 35 37 38 39 42 44 43 40 37 40 39 31 36 32 28 30 31 30 25 24 24 25 26 26 26 26
34 36 37 38 35 41 37 39 39 40 39 39 39 37 37 37 38 38 38 37 36 31 34 36 39 38 42 33 31 27 27 30 30 31 28 28 27 24 26 26 26 26 26
36 28 29 38 43 44 41 41 41 42 42 41 38 38 39 40 41 43 42 34 37 34 37 37 35 37 32 33 30 28 31 34 29 27 30 30 30 27 28 29 28 27 27
34 39 30 37 38 41 41 41 43 44 43 41 38 38 40 39 38 37 36 38 43 41 40 34 39 37 34 29 28 29 33 34 37 36 34 32 27 28 30 30 29 28 26
37 40 37 36 33 35 35 36 37 35 34 34 34 34 36 35 31 32 33 31 28 30 32 31 29 31 31 27 32 38 37 36 40 32 33 29 26 27 27 29 31 29 27
31 38 35 35 28 35 34 28 32 31 32 31 31 31 30 32 32 31 35 35 39 31 30 33 35 29 31 32 31 30 32 35 33 30 33 34 25 28 28 29 30 29 29
Wind_Direction
202 198 195 190 184 183 200 233 260 269 272 276 284 273 257 248 254 262 268 249 283 357 21 39 44 65 78 80 95 106 101 89 88 64 56 37 41 81 87 81 81 75 70
208 209 209 210 206 199 196 219 263 278 285 287 289 285 273 262 256 254 260 260 274 287 323 347 17 14 52 58 86 116 129 117 86 96 70 65 46 17 39 66 69 68 69
215 216 218 221 224 223 220 219 242 265 284 288 291 285 278 267 266 261 262 265 269 287 292 306 326 329 308 276 233 174 183 189 174 169 98 77 71 2 343 2 28 44 39
206 212 221 227 233 236 237 238 238 250 265 285 292 291 289 272 269 267 266 272 273 275 277 285 287 286 282 277 267 243 223 222 229 226 212 192 188 265 312 325 336 357 2
208 213 220 226 231 236 239 247 252 252 254 266 278 284 295 284 271 274 269 271 271 271 277 277 278 279 276 270 264 250 247 240 239 245 251 250 260 281 288 299 314 326 336
212 217 221 224 226 232 238 245 254 257 256 255 264 271 271 284 298 289 285 277 276 273 270 270 273 275 271 264 260 259 253 253 255 252 260 264 271 278 282 291 295 305 305
218 223 229 236 231 232 237 243 247 252 256 255 262 268 271 270 279 294 297 294 283 277 273 271 269 269 270 269 267 262 257 256 255 255 257 264 271 274 283 281 284 283 292
231 228 229 236 237 245 242 243 243 245 255 267 264 271 265 265 271 281 279 284 296 290 279 272 266 265 266 268 268 263 260 258 258 258 259 262 264 268 265 270 278 283 280
238 240 240 244 244 247 246 241 245 252 261 261 259 259 255 265 266 274 273 267 276 286 282 277 273 266 263 262 264 264 263 260 260 260 260 262 261 263 264 267 273 275 279
240 243 245 248 247 252 248 240 255 253 256 255 250 248 266 259 266 259 264 272 280 273 265 278 275 267 265 264 264 264 264 263 262 260 260 260 260 260 260 263 265 268 274
233 236 241 245 244 251 254 255 252 255 257 254 256 256 261 259 258 261 264 269 269 275 267 273 279 281 272 266 265 265 264 265 263 261 261 260 259 257 256 257 259 260 263
239 242 243 243 246 247 249 249 253 256 258 255 250 258 260 263 264 267 250 262 273 271 273 277 277 275 269 270 268 267 267 266 266 264 262 260 260 257 256 255 258 260 262
247 250 250 249 248 248 250 250 251 254 258 256 257 259 261 265 265 266 258 261 262 263 267 263 266 274 271 263 262 266 265 264 263 264 263 261 259 259 256 256 256 258 259
248 247 246 245 245 245 246 249 251 253 257 256 260 259 258 263 264 263 267 260 260 256 259 258 263 268 267 266 265 262 262 263 261 260 260 260 260 259 258 256 257 257 258
248 248 246 246 245 244 245 247 251 251 253 257 251 254 258 261 260 263 264 262 265 262 263 260 262 263 265 265 265 262 262 261 262 259 258 258 258 258 258 258 257 257 255
251 251 249 247 246 244 246 249 247 251 252 253 258 256 258 260 261 260 260 261 263 265 267 262 259 258 261 262 261 259 259 263 261 261 259 257 256 255 255 255 257 256 254
250 252 249 245 243 242 245 248 250 252 252 252 253 254 256 257 256 257 258 256 259 262 265 265 264 262 261 264 266 265 264 264 264 261 256 252 252 253 253 253 253 253 254
253 252 248 244 241 241 243 246 248 249 251 252 253 253 253 252 254 251 254 257 258 256 258 263 266 272 276 272 268 272 275 271 267 265 264 260 256 252 251 253 253 251 251
250 248 246 242 239 238 240 243 245 247 250 251 252 251 250 250 249 252 253 256 258 260 261 261 265 267 269 281 278 276 279 272 266 269 270 266 260 257 252 251 253 253 251
244 245 239 237 237 235 237 239 242 246 249 250 250 251 250 248 251 253 256 258 259 258 260 262 263 266 269 265 265 266 263 272 263 263 266 270 266 259 255 253 251 252 251
239 236 238 237 231 232 236 236 241 245 248 250 252 252 249 251 254 258 260 260 261 257 258 259 260 261 266 269 261 260 265 263 261 262 258 265 268 262 252 247 246 247 249
240 236 228 225 242 234 241 240 242 245 249 251 252 252 252 254 258 264 264 264 271 252 252 252 257 259 257 258 260 258 263 263 269 261 253 252 256 255 254 249 246 248 250
240 235 236 238 229 236 243 244 245 246 250 250 250 252 255 259 263 266 264 251 257 249 251 246 259 264 260 259 251 257 245 256 255 247 250 256 255 253 254 254 251 252 255
235 235 245 240 240 242 243 245 249 251 251 250 248 252 257 260 264 266 257 248 248 249 245 246 252 258 261 251 247 245 249 253 248 249 266 261 260 249 254 255 252 253 259
237 247 242 241 245 249 249 249 245 245 248 250 252 255 256 256 257 258 259 250 250 245 241 241 246 243 252 247 250 250 247 254 263 263 253 261 247 243 246 255 254 252 252
246 240 235 246 239 247 248 244 242 243 249 254 258 256 251 254 254 252 249 250 242 240 243 236 240 253 251 250 257 258 261 263 256 258 244 255 254 257 252 252 252 253 256
Height
3184 3186 3187 3189 3191 3193 3194 3195 3196 3198 3199 3200 3202 3203 3204 3204 3205 3206 3206 3207 3206 3207 3207 3207 3207 3207 3207 3207 3208 3208 3208 3208 3207 3208 3207 3208 3208 3206 3204 3203 3202 3201 3199
3183 3185 3187 3189 3191 3192 3194 3195 3196 3197 3199 3199 3200 3202 3203 3204 3204 3205 3206 3206 3206 3207 3207 3207 3207 3207 3207 3207 3208 3208 3208 3208 3208 3207 3208 3207 3208 3208 3206 3205 3203 3202 3201
3181 3184 3186 3188 3190 3192 3193 3195 3195 3197 3198 3199 3200 3201 3202 3203 3204 3205 3206 3206 3207 3207 3207 3207 3207 3207 3207 3207 3207 3208 3208 3208 3208 3208 3207 3207 3207 3207 3207 3207 3205 3204 3203
3180 3182 3184 3186 3188 3190 3192 3194 3195 3196 3198 3199 3200 3201 3202 3203 3203 3204 3205 3206 3206 3207 3207 3207 3207 3207 3207 3207 3208 3207 3207 3208 3208 3207 3207 3207 3207 3206 3206 3207 3206 3205 3204
3178 3181 3182 3184 3186 3188 3190 3191 3193 3195 3197 3198 3199 3200 3201 3201 3202 3202 3203 3204 3205 3206 3206 3206 3207 3207 3207 3207 3207 3207 3207 3207 3207 3207 3207 3207 3206 3206 3205 3206 3205 3205 3204
3176 3178 3180 3182 3184 3186 3188 3190 3191 3192 3194 3196 3197 3198 3199 3200 3201 3202 3202 3203 3203 3204 3205 3205 3206 3206 3206 3206 3206 3207 3206 3207 3207 3207 3207 3207 3206 3206 3206 3205 3204 3204 3204
3173 3175 3177 3179 3181 3183 3185 3187 3188 3190 3191 3193 3194 3196 3196 3198 3199 3201 3201 3201 3202 3202 3203 3203 3204 3204 3205 3205 3206 3206 3206 3206 3206 3207 3207 3206 3206 3206 3206 3205 3204 3203 3203
3168 3171 3173 3176 3178 3180 3181 3184 3186 3188 3189 3190 3192 3193 3194 3196 3197 3197 3199 3200 3200 3200 3200 3201 3201 3202 3203 3203 3204 3204 3205 3205 3205 3206 3205 3205 3205 3204 3204 3204 3203 3202 3202
3164 3167 3169 3172 3174 3176 3178 3180 3182 3184 3185 3186 3187 3189 3191 3192 3193 3194 3196 3197 3198 3198 3198 3198 3199 3200 3200 3200 3201 3201 3202 3203 3203 3204 3204 3204 3203 3203 3203 3203 3202 3202 3201
3160 3162 3165 3167 3170 3172 3174 3175 3178 3179 3180 3182 3183 3184 3187 3188 3189 3191 3192 3193 3194 3195 3195 3195 3196 3196 3197 3198 3198 3199 3199 3200 3201 3201 3201 3201 3201 3201 3201 3201 3200 3200 3200
3155 3158 3160 3162 3165 3167 3169 3170 3172 3173 3175 3177 3178 3180 3181 3183 3184 3185 3187 3189 3190 3190 3191 3193 3193 3193 3194 3194 3195 3195 3196 3197 3198 3198 3199 3199 3198 3198 3198 3198 3198 3197 3197
3149 3152 3154 3156 3159 3162 3163 3165 3166 3167 3169 3171 3172 3174 3176 3177 3179 3180 3182 3183 3184 3185 3186 3189 3190 3190 3190 3190 3190 3191 3192 3192 3194 3195 3195 3195 3195 3195 3195 3195 3195 3195 3194
3142 3146 3148 3151 3153 3156 3157 3159 3161 3161 3163 3165 3167 3169 3171 3172 3173 3174 3175 3177 3178 3179 3180 3182 3184 3186 3186 3186 3186 3187 3187 3187 3188 3190 3191 3191 3191 3192 3192 3192 3192 3191 3191
3136 3139 3141 3143 3145 3148 3150 3151 3154 3155 3157 3158 3159 3162 3164 3166 3167 3168 3169 3170 3170 3172 3173 3176 3177 3178 3180 3181 3181 3181 3182 3182 3183 3184 3185 3186 3187 3188 3188 3188 3188 3188 3188
3128 3131 3133 3135 3138 3140 3142 3143 3145 3148 3150 3151 3153 3155 3157 3159 3161 3161 3162 3163 3164 3164 3166 3170 3170 3171 3172 3174 3175 3175 3176 3177 3177 3178 3179 3179 3181 3182 3183 3184 3184 3184 3184
3119 3122 3125 3127 3130 3132 3134 3135 3138 3140 3142 3145 3146 3148 3150 3153 3154 3155 3155 3156 3158 3158 3158 3162 3164 3164 3166 3167 3168 3169 3170 3171 3171 3172 3172 3173 3174 3176 3177 3178 3179 3179 3180
3109 3112 3115 3118 3120 3123 3126 3128 3130 3132 3135 3137 3139 3141 3143 3145 3146 3148 3148 3150 3151 3152 3152 3156 3157 3158 3160 3161 3161 3163 3164 3165 3165 3165 3165 3166 3167 3169 3171 3173 3173 3174 3175
3098 3101 3104 3106 3110 3114 3117 3119 3122 3124 3127 3129 3132 3133 3136 3137 3138 3140 3142 3143 3145 3147 3147 3149 3151 3152 3153 3154 3156 3157 3157 3158 3159 3158 3159 3161 3162 3163 3164 3166 3167 3169 3170
3087 3090 3092 3095 3100 3105 3108 3111 3113 3116 3119 3121 3123 3125 3128 3129 3131 3133 3135 3136 3138 3140 3140 3141 3144 3146 3147 3148 3149 3151 3152 3152 3152 3152 3153 3154 3155 3157 3158 3160 3161 3164 3165
3078 3080 3083 3087 3090 3095 3098 3102 3105 3108 3110 3112 3115 3116 3119 3121 3123 3126 3127 3129 3131 3131 3132 3133 3134 3137 3140 3141 3142 3144 3145 3146 3146 3146 3147 3148 3149 3150 3153 3154 3156 3158 3160
3069 3072 3075 3077 3082 3086 3089 3094 3096 3099 3101 3103 3106 3108 3110 3113 3115 3117 3117 3119 3121 3122 3123 3124 3125 3127 3131 3132 3134 3138 3137 3139 3139 3140 3141 3143 3144 3145 3147 3147 3149 3151 3153
3061 3064 3067 3071 3074 3077 3081 3086 3088 3090 3092 3094 3096 3099 3102 3104 3106 3108 3108 3109 3111 3111 3113 3115 3117 3119 3122 3124 3126 3128 3130 3131 3133 3134 3134 3136 3137 3140 3142 3142 3143 3144 3146
3054 3058 3060 3063 3066 3069 3073 3077 3079 3080 3082 3084 3087 3090 3092 3095 3096 3097 3098 3099 3100 3102 3104 3107 3107 3109 3112 3117 3120 3119 3121 3122 3125 3126 3127 3129 3131 3133 3134 3135 3137 3138 3140
3048 3051 3053 3056 3058 3061 3065 3068 3070 3070 3072 3075 3078 3081 3082 3084 3086 3086 3087 3089 3091 3093 3096 3098 3101 3104 3105 3108 3109 3111 3112 3114 3116 3119 3120 3121 3125 3126 3128 3129 3130 3132 3133
3039 3042 3045 3048 3050 3053 3055 3057 3058 3060 3063 3067 3070 3071 3072 3073 3077 3077 3078 3079 3081 3084 3087 3090 3093 3094 3097 3099 3101 3103 3104 3106 3107 3111 3113 3113 3118 3118 3119 3121 3124 3124 3125
3031 3033 3036 3039 3043 3046 3048 3050 3051 3052 3055 3059 3061 3063 3064 3066 3068 3069 3069 3072 3073 3079 3080 3083 3085 3087 3090 3092 3093 3095 3097 3098 3100 3102 3105 3107 3111 3112 3114 3115 3116 3117 3118